Date String (YYYY-MM-DD hh:mm:ss) UTC,Instrument flags,Ambient pressure (hPa),Sample flow (lpm),Bypass flow (lpm),Sample temperature (°C),Ambient temperature (°C),ASC tube jacket temperature (°C),LED temperature (°C),Box temperature (°C),Sample RH (%),Span deviation,Mass concentration (μg/m³),Mass concentration (μg/m³),Mass concentration (μg/m³)
DateTimeUTC,F1_M11,P_M11,Q1_M11,Q2_M11,T1_M11,T2_M11,T3_M11,T4_M11,T5_M11,U1_M11,ZSPAN_M11,X0_M11,X2_M11,X1_M11
2022-05-04 21:00:00,,0824.1,5.00,0.00,24.9,24.2,00.0,33.8,26.8,22.9,0000.0,0002.94,0001.44,0000.96
2022-05-04 21:01:00,,0824.1,5.00,0.00,24.9,24.2,00.0,33.8,26.8,22.9,0000.0,0003.89,0001.45,0000.96
2022-05-04 21:02:00,,0824.1,5.00,0.00,24.9,24.2,00.0,33.8,26.8,22.9,0000.0,0004.05,0001.42,0000.93
2022-05-04 21:03:00,,0824.1,4.99,0.00,24.9,24.2,00.0,33.8,26.8,22.7,0000.0,0003.75,0001.44,0000.94
2022-05-04 21:04:00,,0824.2,4.99,0.00,24.9,24.2,00.0,33.8,26.8,22.7,0000.0,0004.01,0001.52,0000.96
2022-05-04 21:05:00,,0824.1,5.02,0.00,24.9,24.2,00.0,33.8,26.8,23.0,0000.0,0004.26,0001.64,0001.00
2022-05-04 21:06:00,,0824.2,4.99,0.00,24.9,24.2,00.0,33.8,26.8,22.5,0000.0,0004.23,0001.66,0001.05
2022-05-04 21:07:00,,0824.1,5.00,0.00,24.9,24.2,00.0,33.8,26.8,22.3,0000.0,0004.32,0001.73,0001.10
2022-05-04 21:08:00,,0824.2,5.00,0.00,24.9,24.2,00.0,33.9,26.8,22.9,0000.0,0004.48,0001.80,0001.12
2022-05-04 21:09:00,,0824.2,4.99,0.00,24.9,24.2,00.0,33.9,26.8,22.8,0000.0,0004.60,0001.87,0001.16
2022-05-04 21:10:00,,0824.2,5.01,0.00,24.9,24.2,00.0,33.9,26.8,22.8,0000.0,0005.26,0001.92,0001.21
2022-05-04 21:11:00,,0824.2,4.99,0.00,24.9,24.3,00.0,33.9,26.8,23.9,0000.0,0005.15,0001.92,0001.25
2022-05-04 21:12:00,,0824.2,5.01,0.00,24.9,24.3,00.0,33.9,26.8,22.8,0000.0,0004.42,0001.96,0001.29
2022-05-04 21:13:00,,0824.2,4.99,0.00,24.9,24.3,00.0,33.9,26.8,22.5,0000.0,0004.11,0002.00,0001.33
2022-05-04 21:14:00,,0824.3,5.00,0.00,25.0,24.3,00.0,33.9,26.8,22.6,0000.0,0004.26,0002.06,0001.38
2022-05-04 21:15:00,,0824.3,4.99,0.00,25.0,24.3,00.0,33.9,26.8,22.4,0000.0,0004.29,0002.11,0001.43
2022-05-04 21:16:00,,0824.3,5.01,0.00,25.0,24.3,00.0,33.9,26.8,22.0,0000.0,0004.03,0002.05,0001.47
2022-05-04 21:17:00,,0824.3,4.99,0.00,25.0,24.3,00.0,33.9,26.9,22.7,0000.0,0004.04,0002.06,0001.48
2022-05-04 21:18:00,,0824.3,5.00,0.00,25.0,24.3,00.0,33.9,26.9,23.0,0000.0,0004.17,0002.08,0001.47
2022-05-04 21:19:00,,0824.3,5.01,0.00,25.0,24.3,00.0,33.9,26.8,23.1,0000.0,0004.15,0002.05,0001.46
2022-05-04 21:20:00,,0824.4,5.00,0.00,25.0,24.3,00.0,33.9,26.9,22.8,0000.0,0004.03,0002.01,0001.46
2022-05-04 21:21:00,,0824.3,5.00,0.00,25.0,24.4,00.0,33.9,26.9,23.3,0000.0,0003.49,0002.01,0001.48
2022-05-04 21:22:00,,0824.3,5.01,0.00,25.0,24.4,00.0,33.9,26.9,23.5,0000.0,0003.31,0001.99,0001.48
2022-05-04 21:23:00,,0824.3,4.99,0.00,25.0,24.4,00.0,33.9,26.9,22.8,0000.0,0003.31,0002.01,0001.51
2022-05-04 21:24:00,,0824.3,5.01,0.00,25.0,24.4,00.0,33.9,26.9,22.8,0000.0,0003.38,0002.06,0001.54
2022-05-04 21:25:00,,0824.3,4.99,0.00,25.0,24.4,00.0,33.9,26.9,23.4,0000.0,0003.91,0002.09,0001.56
2022-05-04 21:26:00,,0824.3,5.00,0.00,25.0,24.4,00.0,33.9,26.9,23.6,0000.0,0003.90,0002.11,0001.60
2022-05-04 21:27:00,,0824.3,5.01,0.00,25.1,24.4,00.0,33.9,26.9,23.8,0000.0,0003.96,0002.19,0001.69
2022-05-04 21:28:00,,0824.3,5.00,0.00,25.1,24.4,00.0,33.9,27.0,23.1,0000.0,0004.01,0002.25,0001.76
2022-05-04 21:29:00,,0824.3,5.00,0.00,25.1,24.4,00.0,33.9,26.9,22.8,0000.0,0004.04,0002.34,0001.86
2022-05-04 21:30:00,,0824.3,4.99,0.00,25.1,24.4,00.0,33.9,27.0,23.4,0000.0,0004.10,0002.45,0001.96
2022-05-04 21:31:00,,0824.3,5.01,0.00,25.1,24.4,00.0,34.0,27.0,23.9,0000.0,0004.14,0002.52,0002.05
2022-05-04 21:32:00,,0824.3,4.99,0.00,25.1,24.4,00.0,34.0,26.9,23.2,0000.0,0004.21,0002.63,0002.16
2022-05-04 21:33:00,,0824.4,5.00,0.00,25.1,24.4,00.0,34.0,26.9,23.3,0000.0,0004.40,0002.77,0002.26
2022-05-04 21:34:00,,0824.4,5.00,0.00,25.1,24.4,00.0,34.0,26.9,23.1,0000.0,0004.72,0002.86,0002.33
2022-05-04 21:35:00,,0824.3,4.99,0.00,25.0,24.4,00.0,34.0,26.9,23.2,0000.0,0004.71,0002.91,0002.40
2022-05-04 21:36:00,,0824.3,5.00,0.00,25.0,24.3,00.0,34.0,26.9,23.0,0000.0,0004.29,0003.00,0002.48
2022-05-04 21:37:00,,0824.4,5.01,0.00,25.0,24.3,00.0,34.0,26.9,23.4,0000.0,0004.25,0003.02,0002.51
2022-05-04 21:38:00,,0824.4,5.00,0.00,25.0,24.3,00.0,34.0,26.9,23.5,0000.0,0004.34,0003.05,0002.52
2022-05-04 21:39:00,,0824.4,5.00,0.00,25.1,24.4,00.0,34.0,27.0,23.1,0000.0,0004.44,0003.10,0002.52
2022-05-04 21:40:00,,0824.4,4.99,0.00,25.1,24.4,00.0,34.0,27.0,23.3,0000.0,0005.78,0003.08,0002.51
2022-05-04 21:41:00,,0824.4,5.01,0.00,25.1,24.4,00.0,34.0,27.0,23.3,0000.0,0006.11,0003.06,0002.50
2022-05-04 21:42:00,,0824.4,5.00,0.00,25.1,24.4,00.0,34.0,27.0,23.4,0000.0,0006.30,0003.07,0002.50
2022-05-04 21:43:00,,0824.4,5.00,0.00,25.1,24.4,00.0,34.0,27.0,23.3,0000.0,0006.42,0003.05,0002.47
2022-05-04 21:44:00,,0824.5,4.99,0.00,25.1,24.4,00.0,34.0,27.0,23.5,0000.0,0006.49,0003.06,0002.47
2022-05-04 21:45:00,,0824.4,5.00,0.00,25.1,24.5,00.0,34.0,27.0,23.3,0000.0,0006.18,0003.01,0002.47
2022-05-04 21:46:00,,0824.4,5.00,0.00,25.1,24.5,00.0,34.0,27.1,23.4,0000.0,0006.27,0003.03,0002.46
2022-05-04 21:47:00,,0824.4,5.01,0.00,25.1,24.5,00.0,34.0,27.1,23.8,0000.0,0006.13,0002.97,0002.44
2022-05-04 21:48:00,,0824.4,4.99,0.00,25.2,24.5,00.0,34.0,27.1,23.7,0000.0,0006.02,0002.96,0002.45
2022-05-04 21:49:00,,0824.4,5.01,0.00,25.1,24.5,00.0,34.0,27.1,23.4,0000.0,0006.10,0002.99,0002.46
2022-05-04 21:50:00,,0824.4,4.99,0.00,25.2,24.5,00.0,34.0,27.1,24.0,0000.0,0006.14,0003.00,0002.48
2022-05-04 21:51:00,,0824.4,4.99,0.00,25.2,24.5,00.0,34.0,27.1,23.7,0000.0,0005.55,0003.03,0002.49
2022-05-04 21:52:00,,0824.4,5.00,0.00,25.2,24.5,00.0,34.0,27.1,23.6,0000.0,0004.57,0003.04,0002.50
2022-05-04 21:53:00,,0824.4,5.00,0.00,25.2,24.6,00.0,34.0,27.1,23.5,0000.0,0004.35,0003.00,0002.50
2022-05-04 21:54:00,,0824.4,4.99,0.00,25.2,24.6,00.0,34.1,27.1,23.2,0000.0,0004.33,0002.98,0002.50
2022-05-04 21:55:00,,0824.4,5.01,0.00,25.2,24.5,00.0,34.1,27.1,22.9,0000.0,0004.27,0002.96,0002.50
2022-05-04 21:56:00,,0824.4,4.99,0.00,25.2,24.5,00.0,34.1,27.1,23.0,0000.0,0004.22,0002.95,0002.49
2022-05-04 21:57:00,,0824.5,4.99,0.00,25.2,24.6,00.0,34.1,27.1,23.6,0000.0,0004.24,0002.97,0002.50
2022-05-04 21:58:00,,0824.5,5.01,0.00,25.2,24.6,00.0,34.1,27.1,24.0,0000.0,0004.21,0002.97,0002.50
2022-05-04 21:59:00,,0824.4,4.99,0.00,25.2,24.6,00.0,34.1,27.1,23.3,0000.0,0004.25,0002.96,0002.48
